TimePDT,TemperatureF,Dew PointF,Humidity,Sea Level PressureIn,VisibilityMPH,Wind Direction,Wind SpeedMPH,Gust SpeedMPH,PrecipitationIn,Events,Conditions,WindDirDegrees,DateUTC
12:00 AM,44.6,37.4,76,29.85,10.0,South,11.5,-,N/A,,Partly Cloudy,170,2012-10-21 07:00:00
12:53 AM,44.1,37.9,79,29.86,10.0,South,15.0,-,N/A,,Mostly Cloudy,180,2012-10-21 07:53:00
1:53 AM,44.1,37.0,76,29.86,10.0,South,12.7,-,N/A,,Mostly Cloudy,180,2012-10-21 08:53:00
2:53 AM,43.0,39.0,86,29.86,8.0,South,10.4,-,0.02,Rain,Light Rain,170,2012-10-21 09:53:00
3:53 AM,43.0,39.0,86,29.86,10.0,SSW,12.7,-,0.00,Rain,Light Rain,200,2012-10-21 10:53:00
4:00 AM,42.8,39.2,87,29.84,10.0,South,12.7,-,0.00,,Overcast,190,2012-10-21 11:00:00
4:13 AM,42.8,39.2,87,29.84,10.0,South,13.8,-,0.00,,Overcast,180,2012-10-21 11:13:00
4:42 AM,42.8,37.4,81,29.84,10.0,South,11.5,-,0.00,,Overcast,180,2012-10-21 11:42:00
4:53 AM,42.1,37.9,85,29.85,10.0,South,11.5,-,0.00,Rain,Light Rain,170,2012-10-21 11:53:00
5:13 AM,42.8,37.4,81,29.83,10.0,SSE,13.8,-,0.00,,Overcast,160,2012-10-21 12:13:00
5:51 AM,42.8,39.2,87,29.84,10.0,SSE,11.5,-,N/A,,Overcast,150,2012-10-21 12:51:00
5:53 AM,42.1,39.0,89,29.85,10.0,SSE,10.4,-,0.00,,Overcast,150,2012-10-21 12:53:00
6:01 AM,42.8,39.2,87,29.84,10.0,SSE,10.4,-,N/A,,Overcast,150,2012-10-21 13:01:00
6:43 AM,42.8,39.2,87,29.85,10.0,SSE,10.4,-,N/A,,Overcast,160,2012-10-21 13:43:00
6:50 AM,42.8,39.2,87,29.85,10.0,SSE,8.1,-,N/A,,Overcast,160,2012-10-21 13:50:00
6:53 AM,42.1,39.0,89,29.86,10.0,SSE,10.4,-,N/A,,Overcast,160,2012-10-21 13:53:00
7:53 AM,43.0,39.0,86,29.87,10.0,South,9.2,-,N/A,,Overcast,170,2012-10-21 14:53:00
8:23 AM,42.8,39.2,87,29.87,10.0,SSE,10.4,-,N/A,,Overcast,150,2012-10-21 15:23:00
8:53 AM,42.1,39.0,89,29.88,10.0,SSE,10.4,-,N/A,,Overcast,160,2012-10-21 15:53:00
9:53 AM,43.0,39.0,86,29.88,10.0,SSE,11.5,-,N/A,,Mostly Cloudy,160,2012-10-21 16:53:00
10:53 AM,46.0,37.9,73,29.88,10.0,South,12.7,19.6,N/A,,Mostly Cloudy,180,2012-10-21 17:53:00
11:53 AM,46.9,37.9,71,29.88,10.0,South,10.4,-,N/A,,Mostly Cloudy,190,2012-10-21 18:53:00
12:00 PM,46.4,37.4,71,29.87,10.0,South,11.5,-,N/A,,Mostly Cloudy,190,2012-10-21 19:00:00
12:53 PM,50.0,37.0,61,29.86,10.0,South,11.5,-,N/A,,Mostly Cloudy,170,2012-10-21 19:53:00
1:53 PM,51.1,36.0,56,29.86,10.0,South,11.5,-,N/A,,Mostly Cloudy,190,2012-10-21 20:53:00
2:53 PM,51.1,35.1,54,29.85,10.0,SSW,9.2,-,N/A,,Scattered Clouds,200,2012-10-21 21:53:00
3:53 PM,50.0,36.0,59,29.83,10.0,ESE,8.1,-,N/A,,Mostly Cloudy,110,2012-10-21 22:53:00
4:53 PM,45.0,41.0,86,29.84,10.0,SW,11.5,-,0.05,,Mostly Cloudy,220,2012-10-21 23:53:00
4:58 PM,44.6,41.0,87,29.83,10.0,SSW,3.5,-,0.03,Rain,Rain,200,2012-10-21 23:58:00
5:53 PM,44.1,39.0,82,29.85,10.0,SSE,9.2,-,0.03,,Mostly Cloudy,150,2012-10-22 00:53:00
6:53 PM,43.0,39.0,86,29.86,8.0,SSE,8.1,-,0.00,Rain,Light Rain,150,2012-10-22 01:53:00
7:53 PM,42.1,37.9,85,29.84,10.0,SE,4.6,-,0.01,,Partly Cloudy,130,2012-10-22 02:53:00
8:53 PM,42.1,37.0,82,29.83,10.0,ESE,6.9,-,N/A,,Clear,120,2012-10-22 03:53:00
9:53 PM,41.0,37.0,86,29.83,10.0,ESE,6.9,-,N/A,,Clear,110,2012-10-22 04:53:00
10:53 PM,41.0,37.0,86,29.81,10.0,ESE,6.9,-,N/A,,Clear,110,2012-10-22 05:53:00
11:53 PM,41.0,36.0,82,29.79,10.0,ESE,5.8,-,N/A,,Clear,110,2012-10-22 06:53:00